| time (UTC) | temp F | wind direction | speed MPH | gust MPH | rain 1hr in | rain 24hr in | rain mn in | humidity % | barometer mb |
| 20260503214546 | 73 | 298 | 5.0 | 12.0 | 0.00 | 0.24 | 0.24 | 80 | 1015.7 |
| 20260503213028 | 73 | 334 | 4.0 | 9.0 | 0.00 | 0.24 | 0.24 | 80 | 1015.8 |
| 20260503211604 | 73 | 309 | 4.0 | 10.0 | 0.00 | 0.24 | 0.24 | 80 | 1015.8 |
| 20260503210006 | 73 | 328 | 3.0 | 11.0 | 0.00 | 0.24 | 0.24 | 80 | 1016.0 |
| 20260503204547 | 73 | 329 | 3.0 | 9.0 | 0.00 | 0.24 | 0.24 | 80 | 1016.2 |
| 20260503203057 | 73 | 331 | 3.0 | 10.0 | 0.00 | 0.24 | 0.24 | 80 | 1016.3 |
| 20260503201509 | 73 | 350 | 4.0 | 11.0 | 0.00 | 0.24 | 0.24 | 81 | 1016.2 |
| 20260503200049 | 73 | 301 | 3.0 | 12.0 | 0.00 | 0.24 | 0.24 | 80 | 1016.3 |
| 20260503194533 | 72 | 276 | 6.0 | 12.0 | 0.00 | 0.24 | 0.24 | 81 | 1016.3 |
| 20260503193100 | 72 | 214 | 5.0 | 12.0 | 0.00 | 0.24 | 0.24 | 81 | 1016.2 |
| 20260503191503 | 72 | 306 | 5.0 | 11.0 | 0.00 | 0.24 | 0.24 | 82 | 1016.5 |
| 20260503190044 | 71 | 302 | 5.0 | 12.0 | 0.02 | 0.24 | 0.24 | 83 | 1016.8 |
| 20260503184518 | 71 | 234 | 6.0 | 13.0 | 0.04 | 0.24 | 0.24 | 84 | 1017.1 |
| 20260503183037 | 71 | 289 | 3.0 | 13.0 | 0.04 | 0.24 | 0.24 | 84 | 1017.3 |
| 20260503181540 | 71 | 229 | 4.0 | 12.0 | 0.04 | 0.24 | 0.24 | 84 | 1017.5 |
| 20260503180012 | 72 | 278 | 5.0 | 13.0 | 0.02 | 0.22 | 0.22 | 81 | 1017.7 |
| 20260503174604 | 72 | 279 | 5.0 | 11.0 | 0.00 | 0.20 | 0.20 | 80 | 1017.5 |
| 20260503173106 | 72 | 239 | 4.0 | 12.0 | 0.00 | 0.20 | 0.20 | 80 | 1017.6 |
| 20260503171527 | 72 | 291 | 4.0 | 10.0 | 0.00 | 0.20 | 0.20 | 81 | 1017.5 |
| 20260503160118 | 71 | 303 | 6.0 | 12.0 | 0.00 | 0.20 | 0.20 | 87 | 1018.1 |
| 20260503081608 | 71 | 295 | 4.0 | 14.0 | 0.00 | 0.00 | 0.00 | 87 | 1014.2 |
| 20260503071502 | 72 | 285 | 0.0 | 3.0 | 0.00 | 0.00 | 0.00 | 86 | 1013.4 |
| 20260503054551 | 73 | 125 | 0.0 | 3.0 | 0.00 | 0.00 | 0.00 | 85 | 1014.1 |
| 20260503053021 | 74 | 335 | 0.0 | 2.0 | 0.00 | 0.00 | 0.00 | 84 | 1014.3 |
| 20260503051543 | 74 | 101 | 1.0 | 3.0 | 0.00 | 0.00 | 0.00 | 84 | 1014.3 |
| 20260503050042 | 74 | 60 | 0.0 | 3.0 | 0.00 | 0.00 | 0.00 | 84 | 1014.3 |
| 20260503044511 | 74 | 333 | 0.0 | 3.0 | 0.00 | 0.00 | 0.00 | 83 | 1014.0 |
| 20260503043106 | 74 | 202 | 0.0 | 2.0 | 0.00 | 0.00 | 0.00 | 83 | 1013.5 |
| 20260503041527 | 75 | 175 | 0.0 | 2.0 | 0.00 | 0.00 | 0.00 | 82 | 1013.8 |
| 20260503040056 | 75 | 345 | 0.0 | 3.0 | 0.00 | 0.00 | 0.00 | 82 | 1013.8 |
| 20260503034500 | 75 | 353 | 0.0 | 4.0 | 0.00 | 0.00 | 0.00 | 82 | 1013.6 |
| 20260503033028 | 75 | 268 | 0.0 | 4.0 | 0.00 | 0.00 | 0.00 | 82 | 1013.6 |
| 20260503031506 | 76 | 285 | 1.0 | 3.0 | 0.00 | 0.00 | 0.00 | 81 | 1013.2 |
| 20260503030050 | 76 | 54 | 0.0 | 3.0 | 0.00 | 0.00 | 0.00 | 81 | 1012.5 |
| 20260503024549 | 76 | 148 | 0.0 | 2.0 | 0.00 | 0.00 | 0.00 | 80 | 1012.1 |
| 20260503023033 | 77 | 55 | 3.0 | 6.0 | 0.00 | 0.00 | 0.00 | 79 | 1012.0 |
| 20260503021535 | 78 | 64 | 3.0 | 6.0 | 0.00 | 0.00 | 0.00 | 79 | 1011.7 |
| 20260503020037 | 79 | 57 | 3.0 | 9.0 | 0.00 | 0.00 | 0.00 | 75 | 1011.6 |
| 20260503014541 | 79 | 101 | 4.0 | 7.0 | 0.00 | 0.00 | 0.00 | 74 | 1011.1 |
| 20260503013001 | 79 | 48 | 3.0 | 7.0 | 0.00 | 0.00 | 0.00 | 74 | 1011.5 |
| 20260503011524 | 79 | 49 | 2.0 | 6.0 | 0.00 | 0.00 | 0.00 | 73 | 1011.6 |
| 20260503010015 | 79 | 78 | 2.0 | 4.0 | 0.00 | 0.00 | 0.00 | 74 | 1011.6 |
| 20260503004550 | 79 | 67 | 0.0 | 3.0 | 0.00 | 0.00 | 0.00 | 74 | 1011.5 |
| 20260503003038 | 79 | 59 | 0.0 | 3.0 | 0.00 | 0.00 | 0.00 | 74 | 1011.9 |
| 20260503001607 | 79 | 342 | 1.0 | 4.0 | 0.00 | 0.00 | 0.00 | 73 | 1011.9 |
| 20260503000054 | 80 | 125 | 1.0 | 4.0 | 0.00 | 0.00 | 0.00 | 71 | 1011.5 |
| 20260502234601 | 81 | 135 | 0.0 | 3.0 | 0.00 | 0.00 | 0.00 | 69 | 1012.0 |
| 20260502233031 | 82 | 216 | 0.0 | 2.0 | 0.00 | 0.00 | 0.00 | 67 | 1011.6 |
| 20260502231546 | 82 | 111 | 0.0 | 3.0 | 0.00 | 0.00 | 0.00 | 64 | 1011.5 |
| 20260502230037 | 82 | 133 | 0.0 | 4.0 | 0.00 | 0.00 | 0.00 | 65 | 1011.1 |
| 20260502224523 | 83 | 259 | 2.0 | 10.0 | 0.00 | 0.00 | 0.00 | 64 | 1010.8 |
| 20260502223101 | 83 | 178 | 2.0 | 13.0 | 0.00 | 0.00 | 0.00 | 65 | 1010.5 |
| 20260502221549 | 85 | 287 | 3.0 | 12.0 | 0.00 | 0.00 | 0.00 | 66 | 1010.6 |
| 20260502220024 | 88 | 183 | 2.0 | 7.0 | 0.00 | 0.00 | 0.00 | 62 | 1010.3 |